Location: *
(14.6440°N, 134.5660°E)
Time: 13:23:38
(UTC+00:00)

Daily predictions for brighter satellites

Satellite Brightness Start Highest point End
(mag) Time Altitude Azimuth Time Altitude Azimuth Time Altitude Azimuth
CZ-3C R/B 3.6 12:06:15 10° WNW 12:57:52 13° E 13:06:08 10° E
ATLAS 3B CENTAUR R/B 4.4 18:14:25 66° NNE 18:14:25 66° NNE 18:37:55 10° ENE
CENTAUR R/B 3.9 18:24:41 48° E 18:24:41 48° E 18:31:50 10° SE
Cosmos 2297 Rocket 4.4 18:42:16 18° SE 18:42:16 18° SE 18:43:41 10° SE
CZ-3 R/B 4.1 18:36:00 46° NW 18:40:28 50° NNW 18:50:28 10° ENE
Milstar 3 4.1 18:45:42 53° SSW 18:45:42 53° SSW 18:53:16 10° SE
DELTA-4 R/B 4.5 18:57:28 34° ESE 18:57:28 34° ESE 18:59:17 10° E
Cosmos 2322 Rocket 2.8 19:07:43 53° E 19:07:43 53° E 19:12:50 10° NNE
Cosmos 2285 Rocket 4.2 19:24:07 55° SSW 19:24:07 55° SSW 19:29:07 10° S
EPKM 4.4 19:23:26 55° W 19:25:47 77° NNW 20:11:53 10° ENE
Mugunghwa Rocket 4.4 19:26:21 48° SSW 19:28:04 61° SSE 19:35:23 10° ENE
Intelsat 5-3 Rocket 3.6 19:32:41 42° N 19:33:14 44° NNE 19:41:41 10° E
Cosmos 2123 Rocket 4.2 19:33:25 10° N 19:39:38 71° E 19:45:55 10° S
Ariane 3 Deb 4.3 19:42:33 14° SSE 19:42:33 14° SSE 19:43:19 10° SE
Palapa 6 Rocket 4.2 19:41:00 42° NNW 19:42:20 49° N 19:47:28 10° E
H-II Stage 2 4.4 19:41:09 10° SSE 19:42:56 14° SE 19:45:47 10° E
ASTRO E2 4.3 19:44:03 25° NNE 19:44:25 25° NNE 19:47:45 10° E
Cosmos 1153 Rocket 4.4 19:42:02 10° S 19:48:10 85° E 19:54:18 10° N
Delta 7925 Rocket 3.4 19:49:17 50° NNW 19:49:24 51° NNW 19:53:54 10° NE
IDEFIX/ARIANE 42P 2.9 19:44:23 10° NNE 19:49:32 66° ESE 19:54:40 10° S
Meteor 2-17 Rocket 4.4 19:43:45 10° SSW 19:49:37 54° W 19:55:31 10° N
Longmarch 3A Rocket 3.8 19:51:34 10° NE 19:51:34 10° NE 19:51:35 10° NE
Intelsat 5-1 Rocket 4.4 19:47:14 30° WNW 19:54:23 50° NNW 20:00:28 10° ENE
SL-16 R/B 2.4 19:54:37 44° WNW 19:54:40 44° WNW 20:00:02 10° N
Okean-O 3.3 19:50:39 10° NNE 19:54:58 55° E 19:59:18 10° S
Radarsat Rocket 4.5 19:54:34 10° NNE 20:00:41 70° ESE 20:07:34 10° S
ISS -2.5 20:03:20 29° N 20:03:20 29° N 20:05:16 10° NNE
ATLAS 2A CENTAUR R/B 4.2 19:58:54 31° W 20:02:50 57° SSW 20:39:19 10° SE
Fermi 3.8 20:03:01 51° WSW 20:03:45 61° SSW 20:07:51 10° SE
CZ-2C R/B 2.9 20:00:47 10° NNE 20:05:55 65° ESE 20:11:03 10° S
Atlas Centaur 2 1.5 20:05:25 30° SW 20:07:32 72° SSE 20:11:25 10° ENE
USA 116 4.4 20:06:00 10° SSE 20:10:07 65° ENE 20:14:48 10° N
Lacrosse 5 rocket 1.6 20:09:01 17° NNW 20:12:02 67° ENE 20:16:18 10° SE
CENTAUR R/B 4.0 20:12:00 24° W 20:14:14 27° WSW 20:20:53 10° SSW
Delta 2 Rocket 4.4 20:12:30 19° WSW 20:17:51 84° SSE 20:26:24 10° ENE
GPS 2-17 Rocket1 3.8 20:16:27 24° NW 20:19:01 46° N 20:23:40 10° E
USA 215 3.2 20:15:09 10° SSE 20:21:42 76° SW 20:28:15 10° NW
Cosmos 2297 Rocket 4.1 20:24:11 11° SW 20:24:11 11° SW 20:24:36 10° SW
Cosmos 405 2.8 20:19:07 10° N 20:22:40 78° W 20:26:14 10° S
MSX 3.8 20:17:39 10° NNE 20:23:26 90° WNW 20:29:13 10° SSW
Cosmos 2100 Rocket 3.9 20:21:53 10° S 20:28:00 70° W 20:34:07 10° N
Ariane H10 3.9 20:26:13 12° SW 20:29:03 33° SSE 20:37:45 10° E
GPS 2-15 Rocket1 3.6 20:26:17 19° WNW 20:29:33 51° N 20:34:14 10° E
Aureole 2 Rocket 2.3 20:27:44 13° SW 20:29:51 36° WNW 20:32:22 10° N
Intelsat 5-2 Rocket 2.8 20:29:31 23° WSW 20:30:40 33° SSW 20:32:51 10° SE
Cosmos 1461 4.2 20:33:13 18° W 20:34:21 20° WNW 20:37:33 10° NNW
Cosmos 1703 Rocket 3.5 20:33:43 10° S 20:38:09 75° W 20:42:36 10° N
COSMOS 2455 2.9 20:34:38 10° NNW 20:40:40 86° ENE 20:46:40 10° SSE
Lacrosse 4 Rocket 1.3 20:37:24 10° SSW 20:41:29 89° WNW 20:45:31 10° NNE
Cosmos 1269 Rocket 4.0 20:40:07 10° NNW 20:45:20 66° WSW 20:50:33 10° S
Cosmos 2263 Rocket 3.6 20:41:08 10° N 20:46:29 41° ENE 20:51:48 10° SE
Meteor 1-10 Rocket 4.1 20:41:03 10° S 20:46:39 78° W 20:52:11 10° N
Cosmos 2237 4.2 20:41:17 10° SSW 20:46:55 65° WNW 20:52:34 10° N
Cosmos 1459 Rocket 4.2 20:42:33 10° SSW 20:48:27 48° W 20:54:28 10° NNW
SWIFT 3.3 20:46:52 11° WNW 20:50:39 37° N 20:54:37 10° ENE
Cosmos 2322 Rocket 3.9 20:49:53 10° W 20:51:26 11° WNW 20:52:59 10° NW
Meteor 1-27 Rocket 4.3 20:46:52 10° S 20:52:18 62° E 20:57:49 10° NNE
Cosmos 2173 Rocket 4.3 20:46:40 10° SSW 20:52:33 44° W 20:58:22 10° NNW
Cosmos 2016 Rocket 4.0 20:47:22 10° SSW 20:53:35 68° W 20:59:53 10° N
Meteor 2-6 Rocket 4.2 20:50:23 10° SSW 20:55:56 63° W 21:01:21 10° N
OAO 3 Rocket 3.6 20:52:46 10° NW 20:57:41 67° NNE 21:02:36 10° ESE
Cosmos 2360 Rocket 3.0 20:53:40 10° SW 20:58:31 29° WNW 21:03:23 10° N
SJ-7 4.4 20:54:41 10° NNE 20:58:41 88° ESE 21:02:39 10° S
Milstar 3 Cent rocket 3.7 20:54:03 10° WNW 20:59:14 35° N 21:07:54 10° ENE
Cosmos 2344 4.3 20:52:56 10° SSW 21:01:16 64° ESE 21:08:45 10° NNE
Cosmos 1802 Rocket 4.4 20:55:37 10° SSW 21:01:41 45° W 21:07:43 10° NNW
Cosmos 2061 Rocket 4.4 20:57:31 10° SSW 21:03:18 42° W 21:09:06 10° NNW
